Wind_Speed
12 13 13 14 14 14 14 15 16 17 17 17 17 17 17 18 19 19 19 19 17 16 13 8 6 5 5 6 6 7 8 8 8 6 6 10 11 11 11 11 11 12 11 10 9 7 4 4 5 5 5 1 3 4 4 5 4 3 3 4 2 3 3 4 6 7 4 3 5 6 7 8 5 6 10 7 7 12 12 10 10 11 12 17 18 17 18 15
12 12 13 13 13 14 14 14 15 16 17 17 17 16 17 18 18 19 19 18 17 15 13 9 5 4 3 4 5 6 6 6 6 6 8 9 9 9 10 11 11 11 12 11 10 9 6 6 7 7 5 2 4 4 3 4 4 3 3 4 2 4 4 4 6 8 4 3 7 5 7 9 8 12 16 7 4 11 10 8 11 13 16 18 18 18 16 15
11 12 12 13 13 13 13 13 13 14 15 16 16 16 16 17 17 18 18 18 17 15 12 9 5 3 3 4 5 6 5 4 3 5 7 7 7 8 10 11 10 10 12 13 12 12 9 8 10 9 5 3 5 5 4 6 4 1 4 3 4 6 4 4 6 10 7 6 8 6 7 8 10 16 14 9 7 6 6 11 12 15 20 20 19 18 16 16
11 11 12 12 13 13 13 13 13 12 13 14 15 15 15 16 17 17 18 18 17 15 12 9 5 2 3 5 5 4 2 1 2 3 5 5 6 7 8 9 9 9 11 13 12 13 10 10 10 8 3 4 7 5 4 8 5 1 3 3 5 6 4 5 8 8 8 8 8 8 7 6 13 16 13 13 9 4 11 20 17 17 24 23 21 19 16 15
11 11 11 12 12 12 13 13 13 12 12 13 14 14 15 15 16 17 18 18 17 15 13 10 6 2 1 5 5 5 2 1 2 3 3 3 4 5 6 7 7 8 9 11 11 12 10 11 11 6 4 4 7 5 3 8 6 3 1 2 6 8 3 7 10 7 9 10 8 7 7 8 12 12 16 19 10 5 14 23 18 16 23 22 21 20 16 16
11 11 11 11 12 12 12 13 13 12 12 12 12 13 14 15 16 17 17 18 17 15 13 10 6 3 0 4 5 5 2 1 3 4 3 2 2 3 5 5 5 6 8 9 9 10 10 12 12 6 4 4 5 3 3 8 6 2 2 2 5 6 4 8 10 8 9 11 9 8 7 10 10 7 16 22 14 6 9 18 16 15 21 20 19 19 17 17
12 12 12 12 12 12 12 13 13 13 12 12 11 12 13 14 15 15 16 17 16 14 13 11 8 4 1 3 4 4 3 2 5 6 4 3 1 2 3 3 3 5 7 7 7 10 11 13 13 7 4 3 3 3 5 9 4 2 2 2 3 3 3 6 8 8 10 11 10 9 8 10 9 6 12 20 17 9 9 17 17 19 22 20 20 19 18 18
13 13 13 13 13 13 13 13 13 13 13 12 11 11 12 13 14 15 15 16 15 13 12 11 8 5 2 3 3 3 3 4 7 7 5 4 1 1 2 2 2 4 5 5 6 9 11 13 12 7 3 1 2 3 6 8 3 3 1 2 1 2 2 3 5 7 10 10 9 8 5 6 9 7 9 16 17 12 13 19 20 23 24 22 21 20 19 19
14 14 14 14 14 14 14 14 14 14 14 13 12 11 11 12 12 13 14 14 14 12 11 11 8 5 4 4 4 3 4 6 7 8 7 5 2 0 1 0 1 3 5 4 4 6 9 10 9 7 2 1 2 3 5 5 2 0 2 5 3 4 4 4 6 9 11 10 8 6 1 2 8 5 6 14 18 16 18 21 23 25 25 23 22 20 20 19
15 16 15 15 16 16 16 16 16 16 15 14 13 11 11 11 12 13 13 14 14 12 11 10 7 5 5 6 4 3 5 7 9 9 8 6 3 1 1 1 1 3 4 3 2 4 7 8 8 7 2 1 2 3 3 2 2 5 5 7 7 9 8 6 7 9 12 9 8 6 1 1 6 3 5 14 20 21 22 23 24 24 24 24 22 21 19 18
16 16 17 17 17 17 17 16 17 17 16 16 14 13 12 11 11 12 13 13 14 12 10 10 8 5 5 7 7 4 5 7 10 10 8 7 4 2 2 2 2 2 4 3 1 1 5 7 7 6 2 1 3 3 2 1 5 8 7 8 8 8 7 4 4 7 10 5 7 5 1 1 3 2 7 15 22 24 25 25 25 25 24 23 22 21 19 17
16 17 17 17 18 18 18 17 17 17 17 17 15 14 12 12 11 12 13 13 14 12 9 9 8 5 5 7 10 8 7 7 10 10 9 8 6 4 3 4 3 3 3 3 2 1 3 6 6 5 2 3 3 2 1 3 7 6 5 6 8 9 6 2 2 6 8 3 5 3 2 3 5 8 8 13 23 26 26 26 26 26 25 24 24 22 20 18
17 17 17 18 18 18 18 18 18 18 18 17 16 15 13 13 11 12 13 12 14 11 8 10 9 7 6 7 9 9 8 9 10 10 10 9 7 6 5 5 5 3 4 4 3 2 2 5 5 4 2 2 1 0 3 5 5 3 3 3 4 9 5 2 3 3 5 4 6 3 4 7 8 12 9 13 24 27 27 28 28 28 27 26 25 23 21 19
18 18 18 18 18 18 19 19 19 18 18 17 16 15 14 13 12 13 12 11 12 9 7 10 8 7 8 8 8 8 10 10 10 11 11 11 9 7 6 6 6 4 4 4 4 3 2 5 4 3 1 0 1 2 3 5 3 1 1 2 2 4 4 5 2 3 3 4 8 5 4 9 8 11 11 17 25 28 29 30 30 29 29 28 26 25 23 21
20 20 19 19 19 19 19 19 19 19 18 18 16 15 14 14 13 12 10 10 10 7 9 11 7 8 7 9 9 8 10 11 11 12 12 12 10 8 7 7 7 6 5 5 4 3 2 4 2 2 1 1 1 0 3 4 4 3 1 3 3 1 5 9 5 5 4 2 7 6 3 10 9 9 13 20 25 29 29 29 31 31 31 30 28 27 24 22
21 21 21 21 20 20 20 20 20 20 19 18 18 15 14 15 13 10 10 12 10 8 10 10 7 8 6 6 8 9 12 13 12 13 13 12 11 9 9 9 8 7 6 5 4 4 2 3 2 2 1 1 2 3 4 4 4 4 1 3 3 1 4 7 4 3 3 2 4 5 4 8 7 4 11 21 27 30 27 26 30 32 32 32 30 29 26 24
22 22 22 22 21 21 21 21 21 21 20 19 19 16 14 15 11 10 12 12 9 9 10 7 7 8 9 9 9 11 13 14 13 14 14 12 12 11 10 10 8 8 6 4 4 3 2 2 3 1 2 3 2 4 4 4 4 4 2 1 4 3 2 5 5 3 1 3 4 4 5 11 10 3 10 21 27 29 26 27 32 32 33 33 31 30 28 28
22 23 23 22 22 22 21 21 21 22 22 20 20 18 17 12 8 11 14 10 7 7 8 7 7 3 8 11 9 9 10 13 15 15 14 13 12 11 11 10 8 8 5 3 3 2 1 2 3 1 3 4 3 5 1 4 3 3 3 2 4 3 3 5 6 3 2 2 5 4 6 15 16 8 11 21 26 28 29 30 30 30 32 33 32 32 30 30
22 23 23 23 23 23 22 22 21 22 22 21 19 19 15 9 8 11 8 6 5 6 5 8 10 4 6 9 10 9 8 11 14 15 14 12 11 11 11 9 8 7 3 1 2 0 1 2 3 2 3 4 3 5 6 7 6 5 4 4 4 5 6 7 6 4 1 3 7 7 9 14 17 12 11 19 26 28 29 28 26 27 31 32 33 34 32 31
23 23 24 24 23 23 22 22 22 21 22 21 20 18 12 7 7 6 4 7 11 13 13 12 14 14 13 11 11 12 11 11 13 14 14 13 13 11 9 8 7 5 1 1 2 1 3 3 2 5 6 7 7 6 6 5 6 3 2 3 5 5 7 7 5 3 2 2 8 8 9 13 16 15 13 17 22 22 23 24 25 27 30 34 36 36 35 33
24 24 23 23 24 23 22 23 22 20 20 19 19 15 10 7 5 4 7 12 14 15 18 19 19 22 20 16 13 12 11 11 13 15 15 15 13 9 8 6 4 3 2 1 2 1 4 2 5 8 9 7 6 5 5 4 4 2 2 4 5 5 8 9 4 4 0 3 6 5 7 12 15 16 14 12 13 17 25 26 27 30 33 35 36 37 37 34
26 25 24 24 24 23 23 22 22 20 18 17 15 12 9 8 6 7 10 11 15 17 19 22 24 26 24 21 19 16 13 11 11 15 16 15 14 10 7 5 4 3 1 2 2 3 3 3 9 8 6 5 3 5 6 3 3 2 2 2 5 4 5 8 4 4 2 2 5 6 7 12 14 16 16 13 15 21 31 34 34 34 34 36 37 37 38 35
27 26 25 25 24 24 23 22 21 20 17 14 13 10 9 9 9 11 10 9 15 16 16 19 22 24 22 19 18 16 13 11 10 14 18 16 14 11 8 6 4 2 0 3 5 0 2 6 7 4 8 8 4 3 5 2 1 3 3 2 5 4 1 5 4 5 4 2 6 9 11 11 11 15 18 15 19 22 28 33 35 34 35 38 39 38 39 39
28 27 25 25 24 24 23 22 20 18 16 13 12 10 9 10 9 12 10 6 9 10 11 15 15 16 15 12 12 12 13 11 8 11 18 19 13 9 8 6 4 2 3 5 7 5 6 6 3 7 6 7 3 1 4 2 3 4 5 6 6 6 5 6 3 5 5 3 4 8 11 9 7 12 15 7 8 15 19 23 27 33 36 34 33 36 39 40
30 27 26 26 25 23 22 21 18 17 15 11 10 10 8 9 9 11 8 3 5 6 7 9 9 9 10 9 8 9 9 10 10 10 16 21 16 7 5 6 4 3 5 5 6 5 7 3 5 6 3 4 5 3 4 7 3 5 5 9 10 8 7 6 5 6 5 4 4 6 7 7 2 6 11 5 2 9 11 14 22 30 32 31 32 34 37 38
29 27 27 26 24 23 20 17 15 13 10 9 10 9 7 8 7 8 6 3 3 5 3 5 6 5 7 8 8 8 2 5 10 12 15 18 18 10 4 4 3 3 5 5 3 3 3 0 3 6 5 5 4 5 6 7 4 3 4 7 7 5 4 4 4 4 2 3 2 4 2 9 3 3 10 8 6 9 8 10 18 25 27 31 36 35 36 38
27 26 26 25 23 22 17 13 13 11 8 7 8 7 7 6 5 6 5 3 4 4 3 5 6 7 7 8 11 9 1 2 7 11 15 15 15 11 5 3 2 2 4 4 1 3 3 3 4 5 5 5 4 5 6 8 7 3 4 5 5 2 2 2 2 0 3 3 3 3 4 9 9 5 7 5 6 11 11 12 15 20 27 33 36 34 35 39
25 25 24 23 21 20 17 14 13 11 9 8 7 7 6 4 4 3 3 2 4 2 4 3 5 7 7 9 14 9 1 4 6 7 14 13 12 9 5 6 6 4 4 5 4 5 3 5 5 5 4 4 6 6 8 11 5 5 4 6 5 3 2 2 2 2 2 3 5 4 7 5 10 6 2 4 4 11 14 16 15 16 27 33 32 33 35 37
23 23 22 21 19 18 16 14 13 11 11 10 9 8 5 3 2 3 3 3 3 2 2 3 5 5 5 7 12 9 1 2 1 6 12 11 10 6 2 5 6 4 1 3 5 5 1 3 6 8 5 6 6 3 7 10 4 3 5 5 4 4 3 3 2 1 2 3 9 6 8 4 9 4 2 3 3 9 12 14 12 14 25 30 29 32 35 36
20 20 20 19 17 17 15 13 13 12 10 10 9 7 3 2 2 2 2 4 3 1 2 4 4 4 5 6 4 5 3 2 1 7 9 6 7 4 3 2 3 4 1 4 3 5 2 2 0 4 5 5 5 2 1 4 3 4 6 4 4 4 4 4 2 3 3 5 9 7 12 8 7 3 5 3 5 7 8 9 9 11 19 25 29 33 35 37
16 16 17 17 16 16 14 13 13 12 11 10 9 7 4 2 3 3 6 4 2 1 2 2 2 3 6 5 2 2 2 3 4 8 5 2 3 2 4 3 2 3 3 5 4 5 4 1 2 2 3 5 7 5 2 3 3 4 4 4 4 4 3 4 4 4 1 6 6 3 8 9 8 5 4 5 5 5 7 7 8 9 13 21 29 32 35 37
15 15 16 15 16 17 15 13 12 11 12 11 10 8 5 1 1 4 4 2 1 3 3 2 2 2 4 2 1 3 2 2 4 6 4 3 3 3 3 4 4 1 4 4 3 5 3 4 3 2 1 5 5 4 2 4 4 4 4 4 3 4 4 4 3 1 3 7 3 2 3 5 12 10 8 10 10 9 8 9 12 10 10 18 27 31 34 37
14 15 15 14 15 17 17 14 12 11 12 12 11 7 5 2 5 6 5 3 2 2 1 2 1 3 5 3 3 3 2 3 4 4 3 3 2 5 6 4 5 2 4 3 1 3 4 4 1 0 3 7 9 5 2 2 1 5 4 4 3 1 1 4 4 2 5 6 3 4 4 5 9 7 11 15 13 12 9 12 18 16 14 17 23 29 33 36
14 15 16 16 15 17 17 15 14 13 12 14 12 6 3 6 6 4 7 7 2 2 2 3 3 2 3 2 4 4 3 4 4 5 3 3 2 5 6 5 4 2 1 2 1 2 3 6 3 5 2 6 10 5 5 5 4 4 4 4 4 4 3 4 4 4 6 7 4 3 3 4 5 2 7 9 9 8 9 13 16 16 16 17 20 28 33 36
13 13 14 14 15 17 17 16 16 14 14 15 10 4 6 8 3 3 6 5 2 1 1 2 4 3 2 3 3 3 5 4 2 5 4 4 4 4 4 6 7 5 4 3 2 2 3 7 5 2 1 5 5 2 4 6 2 1 2 4 2 4 5 3 3 4 1 6 6 3 4 6 4 3 5 2 6 6 6 9 9 9 12 15 20 28 33 37
13 12 16 17 16 17 17 18 15 14 17 15 7 6 10 7 4 4 4 4 4 4 3 2 3 3 4 3 3 3 3 2 1 3 4 3 3 5 4 5 8 10 8 6 3 2 1 6 4 2 2 2 1 2 1 2 2 2 2 3 4 4 5 2 4 2 4 3 6 2 6 9 5 4 4 1 5 6 5 6 5 7 11 16 23 29 33 38
17 14 20 23 21 19 18 19 16 15 18 12 6 10 7 4 7 7 4 4 4 5 6 2 3 5 5 3 4 5 2 1 1 3 3 3 3 6 6 5 7 14 14 8 3 4 3 5 3 2 1 1 2 2 2 2 3 4 3 5 4 2 4 4 1 3 3 3 6 3 9 14 10 6 1 1 5 9 8 5 4 6 11 17 23 28 33 37
17 15 20 24 23 22 20 21 18 16 15 9 9 11 4 4 9 9 6 5 3 4 5 5 5 5 6 5 4 4 4 4 4 3 3 3 4 6 7 5 7 12 15 10 3 3 3 3 4 1 2 3 3 1 1 3 3 5 3 2 2 3 1 2 2 2 1 3 7 6 9 14 12 5 2 3 7 10 9 6 5 7 13 19 23 28 32 35
13 13 16 20 21 22 22 23 22 17 12 8 10 10 4 5 8 12 15 9 3 4 4 6 6 3 4 6 4 4 6 6 6 4 4 4 4 5 7 6 5 6 9 10 6 2 3 2 4 1 2 2 3 1 4 2 2 3 1 1 1 3 3 3 3 3 3 3 7 7 9 14 9 5 6 8 9 10 9 8 8 11 17 23 26 29 33 36
15 12 12 14 13 19 26 27 23 15 8 8 11 7 3 3 8 19 26 17 6 6 5 3 5 5 4 5 4 4 5 5 6 5 4 4 4 5 7 7 5 4 2 5 4 1 3 2 4 2 2 1 3 4 7 9 5 3 2 2 1 1 1 1 2 2 3 4 5 4 9 15 7 6 7 8 8 10 11 10 9 13 22 27 28 31 35 39
18 10 10 11 10 20 31 25 16 11 6 8 10 6 4 6 8 16 26 25 15 10 7 5 7 7 5 5 4 4 5 4 6 6 4 5 5 5 9 13 10 8 4 4 2 4 3 3 3 2 1 4 6 4 4 7 6 6 6 7 7 6 3 2 5 3 3 4 5 2 7 18 8 4 5 6 6 8 9 9 9 15 24 28 30 34 37 40
20 10 9 13 14 27 34 18 10 10 6 8 9 7 10 10 7 10 18 22 17 11 8 6 8 8 6 6 5 6 6 4 6 7 5 7 10 7 10 17 18 16 10 3 2 4 4 3 3 3 5 6 6 3 1 2 1 2 4 5 6 6 6 6 8 4 2 4 4 3 6 17 7 4 3 5 5 6 6 9 11 16 25 28 31 34 36 39
26 16 11 14 20 34 30 7 7 9 6 10 11 10 13 10 5 8 13 15 13 9 9 8 8 10 8 5 6 7 7 6 7 8 5 6 11 12 12 19 20 13 7 2 1 3 4 2 3 4 4 2 4 4 1 2 3 2 5 4 6 7 8 7 6 2 2 5 4 3 10 16 4 3 2 3 4 5 5 13 16 16 20 25 30 34 36 38
28 21 17 16 24 36 25 5 7 10 9 11 10 12 16 13 11 11 11 14 14 9 9 11 9 9 9 7 9 9 8 7 7 8 9 8 7 11 17 24 22 12 7 7 7 9 6 2 3 4 5 4 4 3 2 3 1 4 5 5 8 11 7 2 0 1 3 10 9 6 14 17 5 2 2 3 4 5 6 14 18 17 19 24 30 33 36 36
18 15 18 24 35 40 28 14 9 8 11 13 11 12 13 11 17 23 19 18 19 12 8 9 9 10 8 6 8 9 9 10 10 6 9 9 3 5 14 24 24 16 11 10 12 15 9 3 6 7 8 8 7 5 4 3 3 3 3 6 10 13 12 6 2 4 10 12 10 10 16 19 12 3 0 5 7 6 7 12 17 19 21 24 29 33 36 37
12 8 9 18 35 41 34 27 16 6 8 12 8 9 13 12 16 25 25 19 19 16 8 7 9 11 9 8 9 10 12 14 12 6 6 7 4 3 8 18 22 18 11 8 14 14 5 2 9 12 12 13 14 12 6 6 5 5 7 11 14 15 16 11 6 9 12 7 7 17 20 20 25 17 7 11 13 9 9 11 13 19 22 25 30 34 37 39
12 8 8 11 18 24 25 25 19 9 6 9 6 6 16 19 12 13 20 18 17 18 12 9 10 10 10 13 12 12 14 14 13 13 11 7 3 2 3 8 13 15 10 7 13 11 3 4 13 15 17 18 18 17 9 8 8 11 10 13 15 14 14 13 14 18 14 4 9 24 21 18 30 27 16 18 18 11 9 11 15 21 25 28 31 33 35 37
17 14 20 22 14 8 14 21 21 15 9 10 9 7 12 18 14 11 14 13 15 18 13 10 14 18 18 17 12 10 12 12 14 17 14 8 4 2 1 2 6 10 8 5 8 7 3 8 15 13 17 19 18 18 12 8 9 10 11 14 14 13 16 20 24 24 16 11 18 27 22 22 29 26 19 21 16 10 14 17 20 24 24 27 29 30 34 37
24 16 18 28 21 12 20 29 25 20 17 14 10 10 14 20 21 15 8 6 9 16 17 15 19 25 22 16 11 10 13 14 16 16 13 10 10 7 4 4 4 6 7 5 4 4 4 9 14 11 13 17 17 17 13 10 9 9 17 20 13 14 20 24 25 22 19 21 26 27 26 29 29 22 21 24 19 15 19 19 19 21 22 27 31 32 36 40
31 23 16 20 20 18 22 24 19 14 16 16 12 15 19 22 23 14 8 10 10 11 17 23 23 20 17 17 16 18 22 22 18 15 12 11 11 8 7 7 4 4 5 5 2 3 5 8 7 4 7 14 16 12 8 7 7 10 21 24 15 14 18 20 20 18 17 21 27 26 25 26 26 21 21 24 22 17 15 14 17 21 25 30 33 34 38 42
47 38 25 14 9 13 14 11 11 10 11 14 15 18 19 21 22 14 8 16 21 13 14 22 25 16 12 17 22 25 29 25 18 18 16 14 15 13 9 8 8 7 6 6 4 4 5 4 1 3 6 13 9 2 2 1 3 8 23 29 21 16 17 19 18 16 17 20 22 22 19 19 22 21 17 16 14 12 12 13 17 23 29 33 34 36 41 43
51 40 35 24 10 10 10 5 7 10 9 13 19 21 18 17 18 13 8 15 26 25 20 19 20 15 10 15 26 33 37 33 28 27 22 15 17 17 12 10 13 12 8 6 4 4 6 5 3 4 8 10 1 5 4 6 4 11 21 23 21 18 19 21 19 18 22 20 15 16 18 19 21 18 15 13 11 10 13 17 21 25 30 35 37 40 43 43
Wind_Direction
356 358 360 2 5 7 9 10 8 6 6 8 8 6 3 4 6 8 11 16 23 26 23 30 57 87 89 81 80 72 66 66 70 73 72 67 63 58 49 42 34 28 22 15 8 355 338 335 342 345 337 357 31 24 33 28 50 107 113 75 101 153 162 175 182 194 168 200 212 189 189 168 157 167 149 133 129 130 140 155 157 172 173 165 165 162 167 172
351 353 355 358 360 2 6 9 9 7 6 7 8 7 3 2 2 3 4 6 13 21 22 20 43 94 114 101 97 90 86 83 84 74 71 70 64 55 46 40 32 26 19 12 7 3 357 352 350 347 346 49 31 19 38 23 40 86 107 83 185 195 190 198 185 188 172 191 200 180 177 183 184 167 158 152 137 133 124 130 143 153 156 160 165 166 172 175
346 349 352 354 356 358 1 4 7 7 6 6 6 6 4 0 359 0 359 359 2 12 19 15 21 80 139 152 130 115 109 100 99 74 68 67 54 45 38 36 31 26 18 11 4 0 3 359 353 347 351 43 21 19 35 15 18 83 94 84 228 209 191 217 193 187 199 203 196 180 169 182 179 169 168 169 167 169 167 160 158 165 164 164 169 171 175 175
340 344 347 350 351 353 356 358 1 3 3 1 1 2 2 359 356 356 356 354 354 0 12 12 8 53 148 172 166 159 153 93 144 93 71 62 42 32 34 36 30 26 18 13 3 354 356 358 353 350 4 35 18 27 30 10 1 335 107 132 206 181 163 201 189 192 208 207 206 182 155 167 177 181 183 163 155 240 221 192 188 192 180 172 173 174 176 179
333 337 340 343 346 348 350 352 355 358 358 356 354 354 356 355 352 352 352 350 347 351 1 6 359 5 149 176 184 198 198 27 180 143 89 68 40 23 36 40 29 27 18 15 6 353 353 353 353 7 43 27 15 36 27 10 10 349 80 133 164 154 158 193 179 186 203 203 209 180 159 173 175 192 193 175 173 239 227 209 201 202 190 178 177 176 176 185
326 330 333 337 340 342 344 347 349 352 353 352 349 346 347 349 346 346 348 346 344 345 352 359 351 345 100 181 188 201 206 323 205 177 139 106 43 13 40 45 33 28 18 15 5 0 2 359 2 21 46 29 18 37 3 359 11 360 330 59 153 165 164 180 182 194 199 193 197 188 180 174 163 199 202 192 208 252 229 206 193 189 186 181 181 180 182 190
320 324 328 331 335 338 340 343 346 349 350 349 347 342 340 343 342 340 343 344 343 342 345 349 342 326 284 194 189 207 245 253 197 183 171 149 87 358 40 44 39 30 15 13 7 13 15 7 14 29 36 34 17 11 350 343 6 127 293 20 139 195 173 175 196 206 203 202 205 197 183 180 176 195 200 202 223 249 208 189 186 183 181 182 184 185 190 195
316 320 323 328 332 335 337 339 343 347 348 348 348 343 337 339 337 334 338 341 340 340 340 341 336 315 283 216 204 240 257 216 186 186 187 175 197 334 40 47 48 26 10 14 15 24 22 13 18 22 22 38 352 346 358 347 5 114 272 327 99 207 203 201 221 213 212 214 209 194 176 196 201 195 197 209 221 223 194 184 184 182 181 185 189 192 195 195
312 316 320 325 328 332 335 338 341 344 346 348 349 345 336 335 333 330 331 334 336 335 333 335 329 307 280 240 236 263 247 217 201 197 194 195 213 236 34 79 67 16 5 12 16 28 25 20 16 6 348 153 352 331 7 9 336 110 279 306 308 273 284 262 235 221 217 214 201 190 150 184 187 193 225 214 209 200 187 184 183 184 187 188 191 196 196 196
309 313 317 322 325 330 333 336 338 341 345 346 349 348 339 334 329 325 324 326 328 324 324 332 326 297 268 248 235 249 255 233 214 203 199 209 220 211 233 246 261 351 360 357 1 31 25 21 15 8 8 146 8 329 350 34 297 309 305 299 291 289 298 272 248 230 212 213 213 203 310 195 163 168 246 209 194 189 184 183 186 188 190 190 192 195 194 197
306 311 315 319 322 325 329 333 336 338 341 344 347 348 342 335 328 322 320 319 320 317 314 325 323 284 258 244 220 233 276 241 213 207 207 215 219 225 247 256 255 303 340 338 314 28 21 14 14 17 20 304 325 314 312 331 314 318 321 309 300 316 316 270 259 216 193 212 224 197 22 260 163 225 242 206 189 187 187 186 189 191 192 192 193 194 193 196
302 307 311 316 318 321 326 329 331 334 338 341 345 347 343 336 327 319 317 312 314 313 305 321 320 270 249 241 231 251 278 233 211 211 212 217 222 232 255 259 253 277 308 321 290 244 9 359 8 13 327 276 310 337 326 327 326 327 360 334 312 352 359 308 321 192 185 212 205 164 327 254 211 234 236 200 189 187 189 192 192 193 194 195 195 195 194 195
298 303 307 311 314 318 321 324 327 330 333 337 341 346 342 335 328 318 312 307 311 310 300 317 311 263 245 246 248 258 254 225 214 213 213 220 227 239 252 252 247 263 282 294 278 233 334 338 352 1 320 255 263 328 304 324 336 323 31 30 329 355 352 296 20 169 182 197 176 125 291 253 231 236 222 189 189 185 189 196 196 196 195 197 197 197 196 195
296 299 302 306 310 313 316 319 323 325 329 332 337 343 340 334 328 315 306 302 306 306 303 316 299 252 245 255 265 254 234 223 216 213 215 222 228 239 250 250 245 259 279 286 275 235 305 332 343 358 3 245 246 238 314 345 17 334 2 44 12 351 290 280 331 158 157 204 186 141 267 260 260 251 220 195 195 191 193 198 198 199 198 199 199 198 199 198
293 296 299 302 305 309 312 315 318 321 324 326 331 339 338 332 327 315 300 296 299 291 306 314 275 238 252 258 261 251 233 221 215 215 217 224 233 241 246 247 245 251 267 276 260 227 304 329 350 28 341 302 325 46 353 351 12 25 354 315 338 340 274 302 303 188 183 204 180 157 251 268 276 265 220 198 198 198 200 203 202 203 201 201 202 201 201 200
290 293 295 298 302 305 308 312 315 317 319 322 327 332 336 330 324 313 296 296 290 273 300 307 247 229 249 259 256 249 237 222 216 219 221 227 237 244 246 248 250 250 256 272 249 219 312 354 82 56 357 340 66 79 38 3 344 4 65 253 277 269 295 318 324 215 202 150 178 195 246 272 284 274 208 197 201 204 206 209 207 207 206 204 205 204 201 202
286 289 292 296 298 301 305 308 312 314 315 319 321 326 334 327 316 307 299 294 277 268 293 284 229 235 248 253 255 249 239 225 221 224 226 233 240 244 245 247 253 248 249 262 238 221 341 38 117 58 29 45 69 84 36 347 310 324 13 280 255 244 271 297 310 328 117 163 223 237 247 260 269 254 197 201 204 206 211 216 214 211 209 207 207 206 204 204
282 285 288 291 294 297 301 304 308 310 312 316 319 325 330 322 306 305 299 281 257 269 288 247 206 233 254 241 234 241 238 223 222 226 229 235 238 239 240 246 249 240 243 249 217 203 346 54 107 46 18 6 19 85 97 254 223 252 271 286 288 265 228 242 270 310 78 211 235 231 251 263 270 260 217 214 209 210 217 221 220 216 212 211 209 207 207 208
276 279 283 286 290 294 296 300 304 306 309 312 316 323 327 319 308 307 281 227 238 270 273 224 197 202 262 242 228 239 240 220 219 225 230 233 233 235 237 239 232 220 216 209 215 94 44 51 61 356 320 296 266 146 187 210 184 206 225 219 262 275 259 242 241 250 195 258 252 232 242 264 273 268 236 221 213 215 225 228 226 222 217 214 212 211 209 211
270 273 277 282 285 289 292 296 299 303 308 311 320 331 339 335 327 320 249 238 266 267 263 248 229 240 261 264 252 244 238 228 227 229 231 231 229 231 232 226 215 205 186 178 228 22 72 48 318 255 246 243 235 193 174 171 157 167 179 219 247 251 272 273 255 262 159 216 262 235 233 259 266 269 256 227 216 218 228 233 230 225 221 217 215 214 212 214
267 268 272 276 280 284 287 291 295 301 306 312 326 339 345 338 329 315 295 284 278 267 265 264 252 250 256 262 258 247 243 243 242 236 232 228 220 216 218 210 184 196 250 161 177 50 76 62 261 238 222 219 217 171 132 114 135 158 194 241 270 232 257 277 280 310 117 180 267 243 234 257 258 268 264 217 202 220 223 225 228 225 224 222 219 217 215 215
265 265 268 271 274 279 282 286 290 296 303 309 321 332 326 323 316 311 312 296 284 279 270 263 256 254 254 255 255 251 247 247 246 231 218 214 208 205 205 182 156 197 280 89 121 3 24 261 256 238 183 133 95 116 122 129 146 158 173 206 279 247 266 291 306 340 4 171 271 276 261 260 257 266 264 217 202 227 226 225 228 225 223 224 221 218 216 214
262 263 265 267 270 275 276 280 286 291 298 302 310 316 312 316 321 320 317 289 288 288 269 257 253 254 254 252 251 244 232 229 235 222 208 204 202 203 199 166 153 172 47 161 166 102 301 249 248 190 141 126 80 84 115 103 160 183 179 192 264 270 296 284 302 341 326 235 268 288 278 263 253 258 264 239 219 233 236 233 234 230 229 228 225 222 217 213
260 261 263 264 267 270 273 278 283 288 293 296 300 297 300 312 321 325 318 282 284 286 262 252 248 250 248 242 237 227 220 223 226 214 204 201 194 197 202 170 137 153 223 192 163 185 246 244 160 114 124 144 140 115 142 174 276 246 205 202 241 264 243 238 290 339 322 307 313 319 298 269 230 239 259 262 227 242 243 237 237 234 234 234 230 226 221 216
258 259 261 262 263 266 271 277 281 285 288 289 287 283 296 311 319 330 328 302 287 283 258 244 242 248 234 216 210 202 211 227 224 212 202 199 192 182 186 174 160 202 214 168 148 217 260 245 148 127 100 134 157 225 203 183 241 297 230 209 226 247 254 265 324 352 346 328 342 8 323 278 189 220 255 283 276 255 242 234 239 235 233 232 230 227 221 218
257 258 258 258 260 263 266 274 277 279 283 280 273 274 293 307 321 334 344 34 300 271 219 206 216 214 201 197 186 168 189 245 218 209 197 196 198 186 160 168 173 210 186 148 152 235 255 94 118 137 138 137 167 241 234 172 149 301 242 197 205 220 263 288 344 5 299 265 290 63 323 274 276 188 247 259 260 262 249 236 242 237 231 229 228 226 220 216
260 257 256 255 256 259 259 260 264 265 268 269 266 271 287 297 318 341 360 17 280 234 162 173 181 179 193 196 174 159 193 215 179 195 193 192 200 194 193 193 144 209 177 135 255 252 161 105 62 102 124 136 178 240 228 160 139 243 228 134 129 146 236 239 87 357 247 271 279 160 168 274 281 239 248 267 261 270 268 254 248 235 230 230 227 225 220 216
262 258 257 254 252 254 252 249 253 255 250 251 260 266 277 290 301 351 43 304 268 158 138 172 165 178 194 188 184 179 137 144 145 192 191 187 195 190 216 219 178 195 176 141 229 260 150 165 186 153 129 175 204 225 192 160 161 243 195 113 103 118 164 143 100 264 290 354 289 204 148 265 278 249 295 360 262 264 267 259 255 234 229 230 226 223 220 216
264 260 257 250 247 249 248 245 245 246 242 243 251 255 259 259 284 48 91 241 263 99 135 179 162 186 177 161 195 215 224 146 148 187 181 181 193 181 209 217 171 162 176 147 222 261 123 191 198 157 156 213 216 226 181 168 194 208 131 92 61 65 68 67 64 338 31 330 271 228 155 222 275 233 138 32 247 248 257 257 259 243 233 230 224 221 219 214
266 261 256 248 242 242 243 240 239 238 234 234 237 237 231 199 144 102 200 240 258 104 111 165 179 181 153 135 215 241 219 240 143 147 164 178 195 179 121 142 104 113 6 351 278 270 334 42 173 166 188 192 148 96 146 152 152 120 94 52 23 31 46 48 43 62 49 279 270 231 174 188 276 250 161 183 216 219 239 258 266 251 234 225 221 220 216 211
266 259 256 249 238 235 233 228 229 229 221 221 224 211 185 153 106 156 218 238 279 235 113 177 213 127 143 148 208 216 184 244 179 154 163 164 172 149 116 126 74 72 358 331 298 308 338 20 249 244 193 133 101 78 45 51 85 97 75 47 8 336 13 20 355 46 56 257 273 239 176 186 243 249 188 229 252 225 226 253 262 250 229 218 218 219 214 210
265 259 257 249 235 230 225 219 220 219 212 210 208 191 159 171 209 193 224 323 319 217 166 184 220 145 156 143 211 198 174 217 184 165 170 155 170 193 186 186 167 75 315 260 272 331 308 234 253 326 219 162 118 79 24 1 41 89 88 77 38 334 354 346 307 55 226 244 250 122 136 216 244 247 241 246 257 251 232 233 249 256 237 220 217 215 212 208
263 254 256 251 238 230 223 215 209 204 205 197 189 164 121 208 231 194 204 251 233 218 134 117 105 132 139 133 244 211 166 211 190 169 176 146 180 234 245 224 174 211 259 208 282 329 295 294 316 85 267 194 165 150 202 266 136 148 145 128 131 109 339 282 267 269 270 266 233 128 110 271 271 262 237 235 245 257 257 249 255 261 251 235 224 215 210 206
256 247 252 251 240 228 219 210 198 192 197 188 170 128 135 225 234 193 209 226 240 356 43 88 79 95 133 174 238 201 175 233 176 152 172 136 165 238 241 232 194 177 162 148 216 198 244 296 216 179 235 185 182 184 165 145 138 177 163 137 151 152 184 239 239 250 287 302 271 158 136 250 270 261 216 234 262 274 281 272 268 265 252 241 226 212 206 204
255 246 249 251 240 227 214 202 195 191 191 180 159 144 206 217 209 188 217 223 242 326 17 42 84 101 249 263 272 226 204 239 142 133 175 172 187 211 201 208 196 157 132 167 242 165 206 268 252 243 348 157 183 222 128 117 111 214 131 113 176 183 172 207 239 220 295 318 283 205 207 229 236 233 198 239 297 281 287 284 271 251 230 218 210 205 203 203
262 239 232 238 235 227 214 198 193 198 192 173 158 217 219 212 177 183 198 176 182 156 111 16 87 130 261 274 272 250 200 224 131 139 203 211 215 210 203 222 194 175 170 174 204 167 188 273 286 3 360 112 123 293 126 130 176 168 130 179 216 183 135 143 283 334 70 295 274 262 268 275 307 286 202 153 299 274 282 280 237 212 204 201 204 203 202 202
260 244 233 232 226 225 216 195 189 201 195 174 195 225 214 200 190 186 175 151 159 138 131 195 206 182 221 243 234 222 180 213 190 165 209 231 235 198 203 249 198 186 194 184 207 217 189 269 277 116 203 281 12 326 354 33 120 128 178 215 197 133 96 108 275 343 46 260 271 288 280 283 297 296 259 29 274 258 257 242 207 206 201 204 208 204 202 202
259 254 245 240 231 227 215 194 191 197 186 179 231 236 213 202 198 181 173 162 131 117 142 206 218 185 194 210 235 205 174 191 183 174 199 222 247 187 167 222 203 193 202 186 199 247 157 255 283 109 214 279 11 27 307 5 76 125 186 214 126 147 155 101 160 244 210 246 271 284 289 281 270 254 241 234 231 240 243 209 191 211 210 211 210 204 202 201
255 245 248 249 237 227 211 195 196 195 179 192 234 235 212 208 210 200 200 196 149 144 176 219 218 199 180 184 202 193 186 194 174 177 202 196 235 201 170 202 198 188 196 173 178 225 127 219 272 338 263 291 21 146 195 216 52 83 140 344 48 171 175 161 173 187 177 225 270 295 307 287 260 191 198 219 212 223 229 204 200 213 214 213 208 203 201 200
231 228 251 250 226 212 201 194 197 194 187 216 224 220 190 199 222 217 214 213 199 192 208 209 198 216 211 187 197 189 193 205 179 187 222 197 220 233 202 196 159 141 156 136 163 178 106 209 249 322 334 253 196 204 193 188 175 152 188 208 223 186 138 217 220 162 166 222 254 283 290 278 260 150 189 210 202 217 219 205 206 217 218 215 209 204 202 202
216 226 247 224 197 192 187 187 201 201 207 232 225 219 212 216 221 219 219 220 221 222 215 190 192 207 199 192 208 184 183 208 189 194 232 210 219 244 210 192 161 140 122 87 164 197 163 195 197 166 226 212 219 236 208 193 183 180 195 196 197 187 151 242 252 213 177 224 224 168 271 271 261 139 177 189 192 220 216 198 205 220 220 215 211 208 205 204
207 224 227 202 192 183 176 179 216 208 215 230 223 220 216 222 222 212 218 220 223 234 227 210 210 205 195 195 194 178 182 201 194 201 229 218 214 222 202 188 171 154 148 142 203 186 138 122 167 204 221 218 244 277 229 205 178 197 216 194 186 181 167 204 238 226 177 235 231 114 264 268 262 120 169 189 206 238 215 198 210 223 222 215 211 210 207 206
205 211 202 195 193 180 171 182 232 206 235 235 230 234 222 225 233 209 210 212 214 221 221 224 213 205 216 209 189 191 196 205 202 196 213 232 223 222 199 181 172 156 143 160 193 144 113 117 201 258 297 323 318 321 8 46 63 238 243 189 178 203 198 205 224 183 150 224 199 133 254 263 274 92 232 239 259 273 223 212 221 224 222 215 211 210 207 206
209 209 196 189 187 179 176 208 215 204 233 227 228 237 226 229 232 215 202 200 203 201 209 223 212 205 220 204 200 211 193 204 226 203 209 232 225 214 197 183 178 173 179 196 179 165 173 175 174 240 292 315 324 326 330 332 219 225 239 189 200 220 209 183 53 119 248 239 209 204 253 261 266 89 301 292 271 267 232 224 228 226 219 214 211 209 207 205
209 211 203 192 186 185 195 215 201 200 219 214 224 230 224 239 234 224 218 210 210 202 200 224 208 198 209 187 203 220 195 210 235 215 213 230 231 208 197 191 190 191 202 204 171 163 177 190 171 202 236 239 244 236 211 221 210 218 232 203 211 215 201 200 216 215 244 240 213 220 249 264 268 232 182 277 257 247 248 239 231 229 225 217 211 209 207 205
193 196 200 188 189 196 212 220 212 212 211 205 222 224 217 236 238 227 223 221 220 212 212 234 203 191 202 188 199 222 215 220 230 226 219 215 219 239 198 198 202 202 208 196 166 159 153 210 200 207 216 222 238 240 190 136 157 199 211 207 211 212 203 206 221 229 238 238 227 236 244 265 272 264 252 262 257 242 243 243 230 226 224 218 215 211 208 206
189 203 194 173 190 209 222 223 217 221 195 178 185 208 216 226 238 228 218 216 215 209 217 241 210 193 206 199 201 220 220 220 226 231 232 211 207 286 201 203 215 214 213 187 172 164 114 230 219 218 223 227 241 245 209 156 197 218 213 210 214 209 195 196 218 229 231 230 253 250 247 257 266 267 265 264 264 255 237 230 227 226 222 217 215 210 206 206
200 220 209 190 185 201 216 216 212 209 199 186 197 223 230 229 230 222 211 207 206 200 207 233 221 215 214 201 200 220 219 225 231 230 231 218 201 225 219 229 224 211 202 178 185 171 137 234 230 223 232 238 244 247 233 207 224 234 235 230 216 198 191 202 221 228 223 225 247 256 258 257 261 267 268 264 263 256 247 240 233 231 223 213 209 204 203 206
208 227 218 203 201 200 208 212 207 202 207 208 211 228 237 235 231 219 188 177 210 205 203 219 224 220 218 205 200 215 217 221 227 225 220 215 209 202 218 249 227 193 181 169 207 186 159 236 239 224 238 247 244 246 246 241 245 253 255 248 217 193 204 213 225 231 227 234 246 257 263 262 263 266 266 269 272 264 259 250 230 222 213 206 205 203 204 208
211 218 209 200 212 218 215 211 201 198 209 208 214 227 230 235 235 222 174 179 208 207 204 221 231 222 213 210 211 222 225 220 224 225 206 199 211 208 213 224 183 153 190 184 204 210 195 235 244 204 240 255 248 243 241 245 250 256 262 259 232 210 223 227 231 235 233 240 248 254 260 263 266 266 265 273 276 263 251 237 217 213 209 206 204 204 207 210
218 221 215 208 222 220 216 209 188 197 210 202 214 227 227 234 234 225 207 209 215 213 200 216 232 230 212 215 220 229 232 227 230 234 216 200 208 210 213 206 161 148 195 188 171 193 196 229 276 120 232 255 253 215 155 58 11 274 264 260 243 224 232 236 233 228 226 236 247 252 254 257 263 267 268 269 260 239 229 223 214 213 212 208 206 207 210 212
219 223 223 225 231 197 197 201 184 201 215 204 214 225 226 233 230 219 226 225 221 225 218 211 224 229 218 221 224 230 236 236 238 244 243 233 225 226 229 211 182 176 179 171 179 182 171 197 205 165 228 255 269 98 101 61 11 268 258 253 240 226 230 241 246 239 230 228 236 247 247 248 256 264 269 264 244 223 226 223 216 215 215 212 212 214 214 213
Height
1562 1562 1561 1561 1560 1559 1558 1557 1556 1554 1553 1552 1550 1549 1547 1546 1545 1544 1543 1542 1541 1539 1538 1537 1536 1535 1535 1534 1534 1534 1534 1533 1533 1533 1533 1533 1532 1532 1531 1531 1530 1529 1529 1528 1527 1527 1526 1525 1525 1524 1523 1523 1523 1522 1522 1522 1521 1521 1525 1528 1531 1536 1535 1532 1534 1534 1531 1530 1531 1532 1532 1533 1534 1534 1534 1535 1535 1535 1535 1536 1536 1536 1536 1536 1536 1537 1538 1539
1562 1561 1561 1560 1559 1559 1558 1557 1556 1554 1553 1552 1551 1549 1548 1546 1545 1544 1543 1542 1541 1540 1538 1537 1536 1536 1535 1535 1535 1534 1534 1534 1534 1534 1533 1533 1533 1532 1532 1531 1531 1530 1529 1528 1528 1527 1526 1525 1525 1524 1523 1522 1523 1522 1522 1522 1521 1523 1527 1529 1530 1534 1532 1529 1530 1530 1530 1529 1529 1531 1532 1532 1531 1532 1533 1534 1536 1536 1535 1537 1537 1536 1535 1535 1536 1536 1537 1538
1561 1561 1560 1560 1559 1558 1558 1557 1556 1555 1553 1552 1551 1549 1548 1546 1545 1544 1543 1542 1541 1540 1539 1537 1537 1536 1535 1535 1535 1534 1534 1534 1534 1534 1533 1533 1533 1532 1532 1531 1531 1530 1529 1528 1528 1527 1526 1525 1524 1523 1522 1522 1523 1522 1522 1522 1522 1523 1525 1527 1529 1530 1529 1529 1529 1528 1528 1528 1529 1530 1531 1531 1530 1531 1532 1533 1535 1536 1534 1534 1535 1535 1534 1534 1535 1535 1536 1537
1561 1560 1560 1559 1559 1558 1557 1556 1556 1555 1553 1552 1551 1549 1548 1547 1545 1544 1543 1542 1540 1540 1539 1538 1537 1536 1535 1535 1535 1534 1534 1534 1534 1534 1534 1533 1533 1533 1532 1531 1531 1530 1530 1529 1528 1527 1526 1525 1524 1523 1522 1522 1523 1522 1523 1523 1523 1524 1524 1526 1527 1528 1528 1528 1528 1528 1528 1528 1528 1529 1530 1531 1530 1531 1531 1531 1534 1534 1532 1528 1528 1530 1530 1531 1533 1534 1535 1536
1560 1560 1559 1559 1558 1557 1556 1556 1555 1554 1553 1552 1551 1549 1548 1547 1545 1544 1543 1542 1540 1539 1538 1537 1537 1536 1535 1535 1535 1534 1535 1535 1534 1534 1534 1533 1533 1533 1532 1532 1531 1531 1530 1529 1528 1527 1526 1525 1524 1523 1523 1523 1523 1523 1524 1525 1524 1525 1525 1526 1526 1527 1527 1527 1527 1528 1527 1527 1528 1528 1529 1529 1530 1530 1529 1529 1528 1528 1526 1525 1526 1527 1528 1529 1530 1532 1533 1534
1560 1559 1559 1558 1557 1556 1556 1555 1554 1553 1552 1551 1550 1549 1548 1547 1545 1544 1543 1541 1540 1539 1538 1537 1536 1536 1535 1535 1535 1534 1535 1535 1534 1533 1534 1533 1533 1533 1532 1532 1531 1531 1530 1530 1529 1528 1527 1526 1524 1524 1524 1525 1526 1525 1525 1525 1525 1525 1526 1527 1527 1527 1527 1526 1527 1527 1527 1527 1527 1527 1527 1528 1529 1528 1528 1527 1525 1524 1524 1525 1526 1527 1528 1529 1529 1530 1531 1533
1559 1559 1558 1557 1557 1556 1555 1554 1553 1552 1552 1551 1550 1549 1547 1546 1545 1543 1542 1541 1540 1539 1538 1537 1536 1536 1535 1534 1534 1534 1534 1534 1533 1533 1533 1533 1533 1533 1532 1532 1532 1531 1531 1530 1529 1529 1527 1526 1525 1525 1526 1526 1527 1527 1526 1525 1525 1526 1526 1527 1527 1527 1527 1527 1527 1526 1526 1526 1525 1526 1526 1526 1526 1526 1527 1526 1524 1523 1523 1524 1525 1526 1527 1528 1529 1529 1530 1531
1558 1558 1557 1557 1556 1555 1554 1553 1552 1551 1550 1550 1549 1548 1546 1545 1544 1543 1542 1541 1540 1539 1538 1537 1536 1535 1535 1535 1534 1534 1534 1533 1533 1533 1533 1533 1533 1533 1532 1532 1532 1531 1531 1530 1530 1529 1528 1527 1527 1527 1527 1528 1528 1527 1527 1526 1525 1526 1527 1527 1527 1528 1527 1527 1527 1527 1526 1526 1526 1526 1525 1525 1525 1525 1524 1523 1522 1522 1522 1523 1524 1524 1525 1527 1527 1528 1529 1529
1558 1557 1556 1556 1555 1554 1554 1552 1552 1550 1549 1549 1548 1547 1546 1545 1543 1542 1541 1540 1539 1539 1538 1537 1536 1535 1535 1535 1534 1534 1533 1532 1533 1532 1533 1533 1532 1532 1532 1532 1532 1531 1531 1530 1529 1529 1528 1528 1528 1528 1528 1528 1528 1528 1527 1527 1526 1527 1527 1526 1527 1527 1527 1527 1526 1526 1526 1526 1525 1525 1525 1525 1524 1525 1522 1520 1520 1520 1521 1521 1522 1523 1523 1524 1526 1526 1527 1527
1557 1556 1556 1555 1554 1554 1553 1552 1551 1550 1549 1548 1547 1546 1545 1543 1542 1541 1540 1539 1539 1538 1537 1536 1536 1535 1535 1534 1535 1534 1532 1532 1532 1532 1532 1532 1532 1532 1532 1532 1531 1531 1531 1530 1529 1529 1529 1528 1528 1528 1528 1528 1528 1528 1528 1528 1527 1527 1527 1526 1526 1526 1525 1525 1525 1525 1525 1525 1525 1524 1525 1524 1524 1525 1518 1516 1518 1519 1519 1520 1520 1521 1521 1522 1524 1525 1526 1526
1556 1556 1555 1554 1554 1553 1552 1551 1550 1549 1548 1547 1546 1545 1544 1543 1541 1540 1539 1538 1538 1537 1537 1536 1535 1535 1534 1534 1534 1533 1531 1531 1531 1531 1532 1532 1532 1532 1531 1531 1531 1531 1530 1530 1529 1529 1528 1528 1528 1528 1528 1528 1528 1528 1528 1528 1527 1527 1526 1524 1524 1524 1524 1523 1523 1523 1524 1524 1524 1524 1524 1524 1525 1522 1514 1512 1516 1517 1518 1519 1519 1520 1521 1522 1522 1523 1524 1524
1555 1555 1554 1553 1553 1552 1551 1550 1549 1548 1547 1546 1545 1544 1543 1542 1540 1539 1538 1537 1536 1536 1536 1535 1535 1534 1534 1533 1533 1532 1531 1531 1531 1531 1531 1531 1531 1531 1531 1531 1530 1530 1530 1530 1529 1528 1528 1528 1528 1528 1528 1528 1528 1528 1527 1527 1527 1526 1526 1525 1524 1523 1523 1522 1522 1523 1523 1523 1523 1524 1524 1521 1521 1516 1510 1511 1514 1516 1518 1518 1518 1519 1520 1521 1521 1522 1522 1522
1554 1553 1553 1552 1551 1551 1550 1549 1548 1547 1546 1545 1544 1543 1542 1540 1539 1538 1537 1536 1535 1535 1535 1535 1534 1533 1533 1532 1531 1531 1531 1530 1530 1531 1530 1531 1531 1531 1531 1530 1530 1530 1529 1529 1528 1528 1528 1527 1527 1527 1528 1528 1528 1528 1527 1527 1526 1526 1528 1528 1527 1525 1523 1523 1523 1523 1523 1524 1523 1525 1523 1514 1512 1511 1509 1512 1513 1514 1516 1516 1516 1517 1518 1519 1519 1520 1520 1520
1553 1552 1551 1551 1550 1549 1548 1548 1547 1546 1545 1544 1543 1542 1541 1539 1538 1537 1535 1535 1534 1534 1534 1534 1533 1533 1533 1531 1530 1530 1529 1530 1530 1530 1530 1530 1530 1530 1530 1530 1529 1529 1529 1529 1528 1528 1528 1527 1527 1526 1527 1528 1528 1528 1528 1528 1527 1528 1529 1530 1534 1531 1524 1523 1524 1523 1523 1524 1522 1526 1525 1511 1506 1509 1510 1511 1511 1512 1513 1512 1514 1514 1515 1516 1517 1518 1517 1518
1552 1551 1550 1549 1549 1548 1547 1546 1546 1545 1544 1543 1542 1541 1540 1538 1537 1535 1534 1534 1534 1534 1533 1533 1532 1532 1532 1530 1528 1528 1528 1529 1529 1529 1529 1529 1529 1529 1529 1529 1529 1528 1528 1528 1528 1528 1527 1527 1526 1526 1527 1527 1527 1528 1528 1529 1529 1531 1529 1529 1537 1536 1527 1523 1523 1523 1522 1523 1523 1526 1525 1512 1506 1508 1508 1510 1511 1511 1510 1510 1512 1512 1513 1514 1514 1515 1515 1515
1550 1550 1549 1548 1548 1547 1546 1545 1544 1543 1542 1541 1541 1540 1539 1537 1536 1534 1533 1533 1533 1532 1532 1532 1531 1532 1531 1528 1527 1527 1527 1527 1528 1528 1528 1528 1528 1528 1528 1528 1528 1528 1527 1527 1527 1527 1527 1526 1526 1527 1527 1527 1529 1528 1528 1530 1530 1534 1533 1529 1532 1534 1532 1527 1522 1522 1523 1523 1524 1524 1521 1511 1506 1507 1507 1509 1509 1509 1509 1509 1509 1509 1510 1511 1511 1512 1513 1513
1549 1548 1547 1547 1546 1545 1545 1544 1543 1542 1541 1540 1539 1538 1538 1536 1534 1533 1532 1531 1531 1531 1531 1531 1530 1531 1529 1527 1526 1525 1525 1526 1526 1527 1527 1527 1527 1527 1527 1527 1527 1527 1526 1527 1527 1527 1526 1526 1527 1527 1528 1529 1531 1529 1530 1532 1529 1532 1536 1532 1532 1533 1534 1530 1522 1522 1523 1523 1523 1523 1521 1511 1504 1506 1508 1508 1508 1508 1507 1505 1505 1506 1507 1507 1509 1509 1509 1509
1547 1546 1546 1545 1545 1544 1544 1543 1542 1540 1539 1539 1538 1537 1536 1534 1533 1532 1531 1530 1530 1530 1530 1529 1530 1531 1527 1523 1524 1523 1523 1524 1525 1525 1526 1526 1526 1526 1526 1526 1526 1526 1526 1526 1526 1526 1526 1526 1527 1528 1529 1530 1530 1529 1531 1533 1529 1530 1533 1532 1532 1533 1533 1530 1525 1522 1523 1523 1522 1523 1521 1510 1502 1504 1506 1505 1506 1505 1503 1502 1502 1503 1504 1505 1506 1506 1506 1506
1545 1544 1544 1544 1543 1543 1542 1541 1541 1539 1538 1537 1537 1536 1534 1533 1532 1530 1529 1529 1529 1529 1528 1527 1527 1527 1524 1521 1522 1522 1522 1523 1523 1524 1524 1525 1526 1525 1525 1525 1525 1525 1525 1525 1525 1525 1525 1525 1527 1529 1529 1528 1528 1528 1528 1529 1529 1530 1532 1533 1533 1532 1529 1526 1524 1522 1522 1523 1521 1520 1518 1509 1502 1500 1501 1502 1503 1502 1500 1500 1501 1501 1501 1502 1502 1502 1503 1503
1542 1542 1542 1542 1541 1541 1541 1540 1539 1538 1537 1536 1535 1534 1533 1533 1531 1530 1529 1528 1528 1526 1525 1525 1523 1522 1520 1519 1520 1521 1521 1522 1522 1522 1523 1524 1524 1524 1525 1525 1524 1525 1525 1524 1525 1525 1525 1526 1527 1527 1527 1525 1526 1527 1527 1529 1531 1531 1533 1533 1533 1534 1528 1520 1521 1522 1523 1522 1516 1514 1515 1510 1502 1497 1496 1498 1500 1500 1499 1498 1498 1498 1498 1497 1497 1498 1499 1499
1539 1539 1539 1539 1539 1539 1539 1538 1538 1538 1537 1535 1535 1535 1534 1534 1533 1531 1529 1526 1525 1524 1522 1522 1521 1519 1518 1518 1518 1519 1520 1520 1520 1520 1521 1522 1523 1523 1523 1524 1524 1524 1524 1525 1525 1525 1526 1526 1524 1523 1524 1525 1526 1528 1529 1530 1531 1531 1532 1532 1532 1535 1529 1519 1520 1522 1522 1522 1514 1511 1513 1508 1501 1495 1492 1495 1497 1494 1493 1492 1491 1492 1493 1492 1492 1493 1495 1497
1536 1536 1537 1537 1537 1537 1537 1537 1537 1537 1536 1536 1536 1535 1535 1535 1534 1533 1531 1526 1521 1520 1519 1518 1517 1516 1515 1516 1516 1517 1519 1518 1517 1518 1519 1520 1521 1521 1521 1522 1523 1523 1524 1526 1525 1526 1528 1524 1520 1520 1524 1526 1527 1529 1529 1529 1531 1532 1533 1534 1532 1531 1527 1520 1521 1523 1523 1522 1514 1510 1511 1503 1498 1494 1487 1488 1490 1486 1484 1485 1484 1486 1487 1487 1487 1489 1491 1494
1533 1533 1534 1534 1534 1535 1535 1535 1535 1535 1536 1535 1535 1535 1535 1534 1534 1533 1532 1527 1519 1516 1515 1514 1513 1513 1512 1513 1514 1515 1516 1515 1515 1515 1516 1518 1519 1520 1520 1521 1522 1523 1524 1524 1523 1525 1525 1520 1518 1522 1523 1524 1526 1529 1529 1529 1530 1531 1532 1533 1528 1526 1527 1521 1520 1523 1523 1521 1515 1512 1507 1497 1495 1490 1480 1480 1483 1481 1481 1481 1481 1483 1482 1481 1483 1484 1486 1488
1529 1530 1531 1531 1532 1533 1533 1534 1534 1534 1534 1534 1535 1534 1534 1534 1533 1532 1530 1527 1520 1513 1511 1511 1511 1510 1510 1511 1511 1513 1513 1513 1513 1513 1514 1516 1517 1519 1519 1519 1522 1522 1522 1522 1523 1523 1520 1518 1521 1523 1523 1523 1524 1527 1528 1528 1528 1528 1528 1528 1524 1522 1523 1521 1523 1525 1521 1519 1519 1513 1498 1482 1486 1486 1476 1477 1481 1479 1480 1479 1478 1478 1477 1479 1481 1482 1483 1484
1526 1528 1528 1528 1530 1530 1532 1532 1532 1533 1533 1534 1534 1533 1534 1534 1532 1532 1530 1528 1522 1513 1509 1509 1509 1508 1508 1509 1510 1511 1512 1511 1511 1511 1512 1514 1515 1517 1517 1518 1519 1520 1521 1523 1524 1521 1517 1519 1521 1522 1523 1524 1524 1525 1526 1527 1527 1526 1522 1521 1520 1518 1520 1522 1525 1526 1520 1518 1520 1520 1502 1477 1477 1484 1477 1476 1480 1477 1477 1477 1474 1472 1474 1476 1476 1476 1479 1482
1523 1524 1524 1526 1526 1527 1530 1530 1531 1532 1532 1533 1533 1533 1534 1533 1532 1532 1529 1532 1526 1511 1506 1508 1508 1507 1507 1508 1510 1511 1511 1510 1509 1510 1511 1513 1514 1515 1516 1517 1517 1518 1520 1523 1523 1519 1517 1520 1521 1520 1522 1524 1525 1525 1525 1525 1528 1526 1519 1518 1520 1520 1522 1524 1525 1525 1520 1519 1521 1526 1520 1493 1474 1476 1474 1472 1476 1474 1474 1474 1469 1469 1471 1470 1470 1471 1475 1478
1520 1521 1521 1523 1524 1525 1528 1528 1529 1530 1531 1533 1532 1533 1534 1532 1534 1532 1530 1537 1526 1505 1503 1506 1506 1506 1506 1508 1509 1509 1510 1507 1507 1509 1510 1511 1513 1513 1514 1515 1516 1516 1518 1521 1520 1516 1515 1518 1520 1520 1521 1524 1524 1521 1521 1524 1526 1523 1519 1521 1521 1520 1523 1523 1526 1527 1523 1524 1523 1522 1527 1512 1482 1472 1473 1472 1473 1471 1470 1468 1465 1465 1466 1463 1465 1467 1470 1473
1517 1518 1519 1520 1521 1522 1525 1526 1527 1528 1530 1531 1530 1533 1532 1532 1534 1530 1534 1541 1520 1499 1501 1504 1504 1505 1505 1506 1507 1507 1507 1506 1507 1509 1509 1511 1512 1512 1513 1513 1514 1514 1515 1518 1516 1512 1513 1515 1516 1518 1520 1522 1519 1516 1517 1520 1520 1518 1521 1523 1521 1522 1524 1525 1527 1527 1529 1529 1521 1516 1525 1519 1485 1468 1477 1479 1475 1471 1465 1461 1458 1458 1460 1459 1461 1464 1466 1470
1515 1515 1516 1518 1519 1520 1522 1524 1525 1527 1528 1529 1530 1532 1531 1533 1533 1530 1541 1539 1511 1496 1501 1502 1503 1505 1504 1506 1507 1507 1507 1506 1507 1507 1508 1511 1511 1511 1513 1513 1513 1514 1515 1515 1512 1510 1513 1513 1513 1515 1516 1515 1513 1515 1517 1517 1516 1518 1522 1523 1523 1525 1526 1529 1528 1526 1532 1527 1511 1509 1520 1516 1480 1456 1471 1481 1474 1468 1461 1456 1453 1452 1453 1455 1458 1461 1462 1466
1513 1513 1514 1515 1517 1518 1520 1522 1523 1525 1526 1528 1529 1530 1531 1532 1532 1537 1546 1532 1504 1499 1502 1501 1503 1504 1504 1506 1507 1507 1507 1507 1507 1507 1509 1510 1510 1511 1512 1512 1514 1514 1516 1517 1513 1512 1514 1515 1515 1514 1512 1511 1513 1518 1520 1519 1519 1519 1522 1520 1521 1525 1527 1532 1532 1529 1529 1514 1499 1502 1509 1511 1487 1456 1459 1467 1459 1456 1453 1450 1450 1449 1450 1452 1455 1457 1458 1462
1510 1511 1512 1513 1515 1516 1518 1520 1521 1522 1525 1527 1528 1530 1531 1532 1535 1541 1537 1516 1502 1502 1500 1500 1504 1503 1503 1505 1505 1506 1507 1506 1507 1507 1508 1509 1510 1511 1512 1512 1514 1516 1519 1517 1514 1515 1515 1514 1514 1511 1510 1511 1513 1517 1520 1521 1522 1520 1521 1519 1519 1521 1523 1527 1530 1531 1526 1503 1495 1504 1508 1511 1494 1460 1454 1456 1451 1452 1451 1447 1447 1446 1447 1449 1451 1453 1456 1459
1509 1509 1509 1511 1513 1514 1516 1518 1519 1521 1524 1525 1528 1529 1530 1535 1537 1532 1521 1507 1501 1499 1496 1500 1503 1502 1504 1505 1504 1505 1506 1505 1505 1506 1507 1509 1510 1509 1509 1508 1509 1512 1515 1514 1513 1513 1511 1510 1511 1510 1510 1511 1511 1515 1520 1522 1522 1521 1521 1522 1523 1526 1526 1523 1521 1523 1516 1500 1499 1509 1509 1502 1478 1453 1452 1453 1449 1450 1449 1447 1446 1445 1447 1447 1449 1451 1453 1457
1506 1506 1508 1509 1510 1512 1514 1516 1518 1521 1522 1524 1527 1527 1532 1537 1529 1517 1511 1504 1497 1496 1496 1499 1501 1502 1504 1504 1502 1504 1505 1503 1503 1504 1506 1509 1510 1508 1506 1506 1507 1505 1507 1514 1516 1510 1505 1505 1510 1510 1507 1508 1508 1510 1514 1515 1518 1520 1518 1518 1521 1528 1532 1524 1517 1514 1505 1496 1501 1510 1507 1487 1458 1444 1447 1445 1444 1447 1446 1447 1446 1444 1446 1446 1447 1450 1451 1454
1504 1504 1506 1507 1509 1511 1512 1514 1517 1518 1521 1523 1525 1528 1535 1533 1518 1508 1507 1500 1495 1498 1499 1499 1502 1504 1503 1502 1501 1501 1501 1501 1502 1503 1505 1508 1510 1507 1503 1504 1507 1505 1506 1514 1515 1511 1508 1501 1501 1504 1502 1503 1504 1503 1505 1507 1514 1519 1517 1515 1515 1518 1522 1518 1511 1507 1500 1493 1497 1506 1500 1473 1446 1439 1442 1443 1444 1446 1445 1445 1444 1442 1444 1445 1445 1448 1449 1451
1501 1502 1503 1504 1506 1508 1510 1513 1514 1517 1520 1520 1523 1528 1526 1516 1508 1506 1503 1498 1497 1498 1499 1501 1502 1503 1503 1502 1501 1499 1497 1497 1500 1503 1504 1505 1505 1501 1498 1497 1501 1504 1506 1510 1510 1513 1514 1502 1497 1503 1501 1502 1504 1503 1505 1505 1510 1519 1520 1517 1513 1509 1510 1511 1510 1509 1512 1508 1498 1494 1482 1458 1442 1439 1442 1446 1445 1444 1445 1443 1442 1442 1441 1444 1444 1444 1446 1448
1500 1500 1501 1501 1503 1505 1508 1511 1512 1516 1517 1518 1524 1522 1507 1497 1498 1499 1494 1492 1494 1495 1498 1502 1501 1502 1503 1500 1499 1498 1496 1496 1500 1502 1502 1503 1501 1498 1496 1491 1493 1496 1496 1500 1503 1506 1507 1500 1500 1505 1502 1504 1506 1503 1506 1502 1502 1515 1518 1511 1511 1511 1508 1509 1512 1516 1524 1517 1493 1479 1468 1449 1441 1438 1437 1444 1443 1440 1444 1441 1440 1442 1441 1442 1442 1441 1444 1445
1498 1498 1497 1497 1499 1503 1505 1508 1512 1514 1515 1518 1517 1505 1491 1489 1491 1490 1489 1489 1490 1491 1495 1498 1497 1497 1497 1495 1494 1495 1495 1497 1500 1499 1499 1501 1495 1490 1491 1487 1486 1488 1485 1488 1493 1494 1496 1493 1498 1505 1501 1503 1507 1503 1506 1505 1502 1510 1510 1505 1509 1513 1511 1513 1518 1519 1525 1520 1493 1476 1469 1451 1442 1439 1435 1441 1441 1435 1438 1439 1440 1442 1441 1441 1439 1439 1441 1442
1495 1496 1494 1493 1496 1499 1502 1507 1509 1510 1514 1516 1508 1494 1488 1487 1484 1484 1486 1486 1487 1489 1492 1493 1490 1489 1491 1491 1490 1492 1494 1494 1497 1498 1496 1495 1486 1479 1483 1482 1480 1483 1481 1484 1487 1490 1494 1492 1497 1508 1505 1503 1507 1504 1503 1505 1505 1505 1505 1506 1507 1507 1509 1516 1520 1515 1517 1518 1495 1475 1469 1447 1431 1432 1428 1429 1432 1427 1430 1436 1439 1440 1438 1437 1436 1437 1440 1441
1494 1494 1490 1488 1492 1495 1499 1504 1506 1509 1512 1509 1501 1492 1486 1482 1481 1482 1482 1483 1485 1487 1488 1487 1485 1485 1488 1488 1487 1489 1492 1491 1494 1495 1490 1489 1483 1476 1476 1475 1476 1481 1481 1483 1486 1488 1493 1491 1493 1506 1509 1505 1505 1504 1500 1500 1506 1508 1506 1508 1507 1505 1507 1510 1514 1509 1505 1509 1493 1478 1471 1439 1413 1419 1419 1417 1422 1421 1423 1430 1434 1434 1432 1432 1433 1434 1436 1438
1492 1492 1486 1483 1488 1491 1495 1502 1503 1504 1503 1494 1488 1485 1481 1479 1479 1479 1478 1480 1481 1481 1482 1482 1482 1483 1483 1486 1486 1485 1487 1488 1490 1491 1485 1483 1479 1473 1473 1471 1473 1480 1482 1484 1485 1486 1493 1493 1490 1502 1512 1506 1498 1494 1491 1489 1497 1503 1504 1507 1506 1506 1509 1507 1509 1504 1498 1502 1496 1490 1481 1436 1404 1413 1415 1412 1418 1417 1418 1423 1426 1429 1427 1427 1429 1430 1432 1434
1490 1489 1481 1480 1485 1486 1493 1500 1497 1494 1491 1482 1478 1478 1478 1476 1475 1474 1475 1477 1477 1475 1476 1477 1477 1477 1477 1481 1483 1481 1483 1485 1485 1486 1482 1478 1475 1469 1467 1465 1468 1476 1481 1485 1485 1483 1488 1490 1490 1497 1504 1496 1486 1486 1487 1485 1487 1489 1491 1494 1493 1497 1503 1504 1503 1498 1497 1497 1487 1491 1485 1431 1399 1413 1413 1410 1416 1414 1415 1420 1421 1423 1422 1423 1426 1426 1428 1429
1485 1482 1475 1478 1482 1481 1487 1491 1486 1484 1482 1475 1472 1473 1473 1471 1470 1471 1472 1474 1474 1473 1474 1473 1471 1472 1472 1472 1474 1475 1477 1478 1480 1481 1476 1471 1469 1463 1460 1461 1464 1467 1472 1478 1479 1478 1481 1486 1488 1488 1489 1486 1485 1488 1491 1489 1488 1488 1487 1485 1486 1490 1492 1492 1491 1488 1493 1491 1480 1494 1486 1422 1395 1414 1413 1410 1416 1413 1415 1419 1417 1419 1418 1419 1422 1422 1425 1427
1475 1473 1472 1476 1477 1478 1484 1485 1481 1480 1474 1468 1468 1469 1468 1468 1467 1467 1468 1470 1470 1469 1470 1467 1463 1465 1467 1466 1469 1470 1470 1471 1471 1471 1470 1466 1461 1456 1457 1459 1461 1464 1468 1471 1474 1476 1479 1483 1483 1481 1480 1483 1487 1490 1490 1490 1491 1488 1484 1484 1485 1481 1478 1479 1481 1481 1485 1481 1479 1496 1476 1412 1396 1417 1414 1412 1416 1413 1415 1416 1414 1416 1416 1417 1420 1419 1422 1424
1467 1469 1470 1473 1475 1477 1477 1473 1470 1471 1468 1467 1468 1467 1466 1465 1463 1462 1462 1462 1461 1460 1460 1458 1457 1460 1461 1462 1463 1463 1465 1466 1463 1461 1462 1459 1454 1452 1454 1456 1457 1460 1461 1460 1463 1468 1473 1476 1479 1481 1481 1481 1483 1485 1487 1489 1490 1484 1477 1479 1479 1474 1476 1480 1481 1485 1482 1469 1472 1484 1453 1404 1400 1417 1413 1412 1414 1411 1413 1413 1412 1414 1414 1414 1416 1417 1419 1421
1466 1467 1467 1468 1471 1470 1464 1457 1457 1460 1462 1464 1465 1463 1464 1462 1455 1453 1454 1453 1451 1452 1452 1452 1454 1455 1456 1458 1459 1459 1460 1460 1456 1454 1453 1452 1451 1450 1451 1453 1453 1453 1452 1453 1454 1457 1462 1466 1469 1473 1477 1476 1469 1466 1469 1474 1480 1480 1474 1474 1474 1473 1476 1475 1476 1483 1473 1457 1463 1464 1434 1404 1401 1409 1411 1411 1410 1409 1410 1410 1410 1411 1411 1412 1413 1414 1416 1418
1462 1462 1462 1464 1465 1461 1455 1451 1453 1454 1454 1459 1462 1460 1460 1456 1447 1445 1449 1448 1447 1449 1450 1449 1449 1451 1452 1454 1456 1455 1455 1453 1452 1450 1447 1446 1447 1447 1449 1449 1449 1450 1450 1452 1453 1454 1457 1459 1456 1454 1456 1456 1447 1443 1450 1458 1463 1466 1464 1465 1467 1467 1469 1470 1472 1469 1454 1451 1455 1439 1421 1414 1401 1396 1407 1407 1403 1406 1407 1407 1408 1407 1408 1409 1409 1410 1412 1413
1453 1450 1449 1453 1457 1457 1453 1449 1449 1449 1448 1453 1455 1450 1447 1445 1443 1443 1443 1442 1443 1447 1448 1445 1445 1447 1446 1446 1449 1448 1447 1448 1449 1445 1441 1442 1443 1445 1448 1448 1448 1449 1449 1451 1452 1452 1454 1452 1447 1445 1442 1438 1434 1434 1443 1448 1447 1448 1452 1456 1459 1461 1466 1470 1463 1446 1440 1452 1445 1415 1415 1423 1397 1385 1401 1401 1396 1401 1402 1402 1403 1401 1403 1404 1404 1407 1408 1410
1441 1437 1435 1438 1440 1442 1442 1438 1438 1444 1447 1448 1446 1441 1438 1438 1440 1438 1436 1437 1440 1443 1444 1442 1439 1436 1434 1436 1442 1444 1444 1446 1444 1438 1436 1439 1441 1444 1446 1447 1449 1448 1448 1452 1451 1449 1451 1445 1438 1441 1441 1436 1433 1433 1438 1442 1441 1442 1443 1444 1449 1457 1462 1458 1445 1432 1437 1445 1426 1402 1411 1415 1389 1382 1394 1391 1391 1397 1394 1394 1397 1396 1399 1400 1401 1404 1404 1405
1432 1431 1431 1431 1426 1424 1425 1424 1430 1439 1442 1441 1441 1438 1434 1429 1426 1427 1431 1437 1438 1436 1436 1433 1426 1424 1428 1433 1438 1439 1438 1435 1430 1427 1430 1434 1436 1439 1441 1442 1445 1447 1448 1450 1449 1449 1448 1439 1433 1438 1439 1436 1435 1434 1437 1441 1442 1442 1438 1433 1439 1448 1449 1443 1434 1430 1434 1430 1413 1405 1412 1401 1378 1380 1387 1383 1387 1393 1389 1390 1392 1392 1395 1396 1397 1398 1398 1399
1423 1421 1423 1425 1422 1419 1420 1422 1428 1433 1433 1436 1437 1431 1424 1419 1417 1420 1426 1430 1429 1428 1428 1424 1417 1419 1426 1432 1433 1428 1418 1413 1414 1417 1422 1428 1431 1434 1435 1431 1435 1445 1448 1446 1448 1449 1445 1437 1434 1438 1438 1434 1431 1433 1439 1443 1444 1443 1434 1425 1430 1437 1438 1436 1432 1430 1432 1426 1413 1411 1414 1396 1373 1374 1382 1381 1384 1388 1386 1386 1387 1387 1390 1391 1391 1392 1392 1393
1414 1415 1418 1421 1418 1417 1418 1419 1423 1426 1426 1429 1426 1417 1414 1414 1412 1417 1421 1419 1417 1418 1419 1418 1416 1420 1426 1428 1425 1415 1405 1406 1412 1413 1415 1420 1421 1423 1423 1421 1425 1436 1443 1444 1443 1443 1444 1441 1437 1440 1441 1431 1428 1438 1444 1445 1450 1449 1430 1416 1421 1429 1426 1421 1419 1420 1421 1419 1415 1416 1413 1392 1370 1370 1377 1378 1380 1382 1381 1381 1382 1383 1384 1385 1385 1386 1386 1387
1412 1413 1415 1417 1413 1411 1415 1416 1418 1419 1415 1413 1410 1406 1408 1410 1410 1416 1420 1413 1409 1410 1413 1415 1416 1420 1423 1421 1412 1403 1402 1408 1412 1412 1414 1416 1416 1415 1417 1417 1419 1423 1431 1438 1437 1436 1439 1436 1434 1440 1440 1430 1436 1448 1446 1448 1454 1439 1408 1396 1405 1416 1415 1410 1408 1406 1405 1407 1411 1407 1392 1375 1367 1370 1374 1373 1375 1376 1374 1374 1376 1377 1378 1380 1380 1380 1381 1383